Home > Weather > Male > Past weeks

Flag for Maldives Weather for the Past 2 Weeks in Male, Maldives

Now
84 °F

Partly cloudy.


Feels Like: 94 °F
Forecast: 85 / 91 °F
Wind: 12 mph from North

Location: Male Airport

Current Time: May 5, 2016 at 6:52:57 AM

Latest Report: May 5, 2016 at 5:00 AM


Visibility: N/A

Pressure: 29.80 "Hg

Humidity: 79%

Dew Point: 77 °F

Location of MaleLocation

Historic Weather in Male — Graph

°F

Male Temperature Yesterday

Maximum temperature yesterday: 91 °F (at 2:00 PM)
Minimum temperature yesterday: 84 °F (at 6:00 PM)
Average temperature yesterday: 87 °F

High & Low Weather Summary for the Past Weeks

 TemperatureHumidityPressure
High93 °F (Apr 29, 12:00 PM)100% (Apr 20, 1:00 PM)29.92 "Hg (Apr 20, 1:00 PM)
Low79 °F (Apr 20, 1:00 PM)63% (Apr 29, 10:00 AM)29.53 "Hg (Apr 30, 4:00 PM)
Average87 °F76%29.80 "Hg
* Reported Apr 20 5:00 AM — May 5 5:00 AM, Male, Weather by CustomWeather, © 2016

Note: Actual official high and low records may vary slightly from our data, if they occured in-between our weather recording intervals... More about our weather records

Advertising

Male Weather History for the Previous 24 Hours

Scroll right to see more
 ConditionsComfort  
Time TempWeatherWind HumidityBarometerVisibility
5:00 AM
Thu, May 5
84 °FPartly cloudy.12 mph79%29.80 "HgN/A
4:00 AM82 °FPartly cloudy.12 mph84%29.77 "HgN/A
2:00 AM86 °FThunderstorms. Partly cloudy.7 mph79%29.80 "HgN/A
1:00 AM86 °FThunderstorms. Passing clouds.6 mph79%29.80 "HgN/A
12:00 AM86 °FThunderstorms. Partly cloudy.10 mph84%29.83 "HgN/A
11:00 PM
Wed, May 4
86 °FThunderstorms. Partly cloudy.6 mph70%29.83 "HgN/A
10:00 PM84 °FThunderstorms. Partly cloudy.10 mph79%29.80 "HgN/A
9:00 PM84 °FThunderstorms. Partly cloudy.10 mph79%29.86 "HgN/A
8:00 PM84 °FThunderstorms. Partly cloudy.13 mph79%29.83 "HgN/A
6:00 PM84 °FSprinkles. More clouds than sun.12 mph79%29.77 "Hg5 mi
5:00 PM88 °FMore clouds than sun.12 mph75%29.77 "HgN/A
4:00 PM88 °FBroken clouds.10 mph79%29.74 "HgN/A
3:00 PM90 °FBroken clouds.13 mph67%29.74 "HgN/A
2:00 PM91 °FBroken clouds.12 mph67%29.74 "HgN/A
1:00 PM90 °FBroken clouds.13 mph71%29.77 "HgN/A
12:00 PM90 °FBroken clouds.12 mph71%29.80 "HgN/A
11:00 AM90 °FBroken clouds.10 mph71%29.83 "HgN/A
10:00 AM90 °FBroken clouds.9 mph71%29.83 "HgN/A
9:00 AM86 °FPartly sunny.10 mph79%29.83 "HgN/A
8:00 AM88 °FPartly sunny.10 mph75%29.80 "HgN/A
7:00 AM86 °FBroken clouds.5 mph79%29.80 "HgN/A
6:00 AM86 °FThunderstorms. Scattered clouds.3 mph79%29.77 "HgN/A
Weather by CustomWeather, © 2016

See weather overviewHow to use our weather pages